User: anonymous   Login
Location: Mount Tamalpais State Park
(37.9108°N, 122.6128°W)
Time: 12:55:32
(UTC-07:00)
Language:

Cosmos 1814 Rocket - Orbit

View from above orbital plane
View from above orbital plane
View from above satellite
View from above satellite

Ground track
Ground track

The orbit data is extracted from the following two-line orbital elements,

1 17304U 87006B   16180.85908434  .00000007  00000-0  11076-4 0  9999
2 17304  74.0590  20.0755 0030451 306.3798  53.4546 14.37573147542527
Epoch (UTC): 28 June 2016 20:37:04
Eccentricity: 0.0030451
inclination: 74.0590°
perigee height: 745 km
apogee height: 788 km
right ascension of ascending node: 20.0755°
argument of perigee: 306.3798°
revolutions per day: 14.37573147
mean anomaly at epoch: 53.4546°
orbit number at epoch: 54252

The dashed part of the orbit path shows where the satellite is in the earth's shadow,  

DLR